Location: Alpha Ridge Park
(39.3209°N, 76.9128°W)
Time: 01:44:51
(UTC-04:00)

S-56A Canister/Altair - Pass Details

Date: 27 May 2019
Orbit: 633 x 2499 km, 38.9° (Epoch: 18 June)

Event Time Altitude Azimuth Distance (km) Brightness Sun altitude
Rises 04:04:03 0° 273° (W) 3,548 - -16.4°
Exits shadow 04:05:51 - 273° (W) 2,907 10.1 -16.1°
Reaches altitude 10° 04:06:13 10° 273° (W) 2,778 10.0 -16.1°
Maximum altitude 04:13:03 86° 186° (S) 1,333 8.6 -15.1°
Drops below altitude 10° 04:23:42 10° 99° (E) 4,207 11.8 -13.7°
Sets 04:27:44 0° 99° (E) 5,476 12.5 -13.1°
